Regional Weather Roundup
Issued by NWS Green Bay, WI

Home | Current Version | Previous Version | Graphics & Text | Print | Product List | Glossary Off
Versions: 1 2 3 4 5 6 7 8 9 10 11 12 13 14 15 16 17 18 19 20 21 22 23 24 25 26 27 28 29 30 31 32 33 34 35 36 37 38 39 40 41 42 43 44 45 46 47 48 49 50

000
ASUS43 KGRB 300010
RWRGRB

NORTH-CENTRAL AND NORTHEAST WISCONSIN REGIONAL WEATHER ROUNDUP
NATIONAL WEATHER SERVICE GREEN BAY WI
700 PM CDT SUN MAR 29 2015

WIZ005-009-010>012-018-019-300100-
NORTH CENTRAL WISCONSIN

CITY           SKY/WX    TMP DP  RH WIND       PRES   REMARKS
IRONWOOD       CLOUDY    37  34  87 W14G21    29.65R
MANITOWISH WTR CLOUDY    35  33  92 NW16      29.66R
ARBOR VITAE    CLOUDY    37  33  87 NW12G22   29.66R
EAGLE RIVER    CLOUDY    35  30  82 NW18G28   29.62R
LAND O LAKES   CLOUDY    35  32  87 NW14G26   29.62R
RHINELANDER    CLOUDY    36  31  82 NW18G26   29.66R
PHILLIPS       CLOUDY    37  32  81 W10G17    29.70R
ANTIGO         CLOUDY    35  32  88 W17G25    29.64R
TOMAHAWK       CLOUDY    36  32  87 NW12G24   29.69R
MERRILL        CLOUDY    38  33  83 NW15G24   29.69R
$$

WIZ013-073-300100-
NORTHEAST WISCONSIN

CITY           SKY/WX    TMP DP  RH WIND       PRES   REMARKS
IRON MOUNTAIN  CLOUDY    37  31  78 NW22G28   29.54R
MARINETTE      CLOUDY    37  34  87 W8        29.57R
OCONTO         CLOUDY    38  34  85 W14G20    29.60R
$$

WIZ017-030-035>037-045-300100-
CENTRAL WISCONSIN

CITY           SKY/WX    TMP DP  RH WIND       PRES   REMARKS
MEDFORD        CLOUDY    37  31  81 NW9       29.72R
WAUSAU         CLOUDY    39  33  79 NW22G33   29.68R
MOSINEE        CLOUDY    37  34  87 NW9G28    29.71R
MARSHFIELD     CLOUDY    40  33  76 NW22G28   29.74R
WISC RAPIDS    CLOUDY    41  32  70 NW21G40   29.75R
STEVENS POINT  CLOUDY    39  31  75 W15       29.72R
WAUPACA        CLOUDY    43  34  70 W15G26    29.71R
SHAWANO        CLOUDY    41  34  77 W12G18    29.65R
CLINTONVILLE   CLOUDY    39  32  75 NW14G21   29.66R
$$

WIZ038-039-048-051-300100-
FOX VALLEY

CITY           SKY/WX    TMP DP  RH WIND       PRES   REMARKS
NWS GREEN BAY  CLOUDY    40  34  79 W18G30    29.64R
APPLETON       CLOUDY    39  32  75 W21G30    29.67R
OSHKOSH        CLOUDY    41  33  73 W22G29    29.69R
FOND DU LAC    CLOUDY    42  34  73 W16G26    29.71R
$$

WIZ022-050-052-300100-
EAST CENTRAL WISCONSIN

CITY           SKY/WX    TMP DP  RH WIND       PRES   REMARKS
STURGEON BAY   CLOUDY    37  34  87 W16G22    29.59R
MANITOWOC      CLOUDY    41  36  82 NW18G25   29.63R
SHEBOYGAN      CLOUDY    41  35  79 W18G31    29.66R
$$

LMZ563-521-522-541>543-300100-
LAKESHORE

STATION/POSITION TIME  TEMP    WIND        PRES    VSBY  WAVE
                       AIR SEA DIR/SP/G                  HT/PER
                 (UTC) (F)     (DEG/KT/KT) (MB)    (MI)  (FT/S)
SHEBOYGAN LKSHOR 0000   43     290/ 22/ 26 1005.1R
KEWAUNEE LKSHORE 0000   39     280/ 16/ 20 1001.3R
NORTHPORT PIER   0000   35     240/  6/ 15 1000.3S
SISTER BAY LKSHO 0000   35     260/ 17/ 19   N/A
CHAMBERS ISLAND  0000   36     230/  9/ 15 1001.0S
MENOMINEE LKSHOR 0000   38     260/ 11     1001.9R
$$



USA.gov is the U.S. government's official web portal to all federal, state and local government web resources and services.